Regional Weather Roundup
Issued by NWS

Home | Current Version | Previous Version | Text Only | Print | Product List | Glossary Off
Versions: 1 2 3 4 5 6 7 8 9 10 11 12 13 14 15 16 17 18 19 20 21 22 23 24 25 26 27 28 29 30 31 32 33 34 35 36 37 38 39 40 41 42 43 44 45 46 47 48 49 50

216
ASUS44 KLIX 200905
RWRLA
LOUISIANA WEATHER ROUNDUP
NATIONAL WEATHER SERVICE NEW ORLEANS LA
300 AM CST SAT DEC 20 2014

NOTE: "FAIR" INDICATES FEW OR NO CLOUDS BELOW 12,000 FEET WITH NO
      SIGNIFICANT WEATHER AND/OR OBSTRUCTIONS TO VISIBILITY.
      SKY/WX - SKY CONDITION AND SIGNIFICANT WEATHER.
      TMP - AIR TEMPERATURE.    DP   - DEWPOINT TEMPERATURE.
      RH  - RELATIVE HUMIDITY.  PRES - PRESSURE.
      HX  - HEAT INDEX.         WCI  - WIND CHILL INDEX.

*  THESE STATIONS ARE NOT NWS OR FAA STATIONS AND ARE NOT UNDER
   NWS QUALITY CONTROL.

LAZ040-048-061>063-065-066-069-201000-
SOUTHEAST LOUISIANA

CITY           SKY/WX    TMP DP  RH WIND       PRES   REMARKS
N.O. AUDUBON     N/A     52  50  94 MISG        N/A
N.O. INTL ARPT CLOUDY    52  49  89 NE12      30.05F
N.O. LAKEFRONT CLOUDY    53  50  89 NE17      30.06F
N.O. DOWNTOWN* CLOUDY    52  46  82 NE3       30.06S
SLIDELL        CLOUDY    50  47  89 N8        30.07R
BATON ROUGE    CLOUDY    48  45  89 N8        30.11R
BOOTHVILLE     RAIN      57  56  96 N13G23    30.02R FOG
BELLE CHASSE   LGT RAIN  51  49  92 NE10      30.04F
BOGALUSA*        N/A     49  45  88 N10       30.12R
GALLIANO*      CLOUDY    53  52  96 MISG      30.03S
NEW ROADS*     CLOUDY    47  46  95 N8        30.12S
GONZALES*      CLOUDY    49  49 100 N7        30.08R
HAMMOND*       NOT AVBL
HOUMA*         CLOUDY    50  49  97 NE9       30.04S
PORT FOURCHON* CLOUDY    55  54  94 NE18      30.04S

$$

LAZ041-044-053-054-201000-
SOUTHWEST LOUISIANA

CITY           SKY/WX    TMP DP  RH WIND       PRES   REMARKS
LAKE CHARLES   CLOUDY    49  47  93 MISG      30.11S FOG
LAFAYETTE      CLOUDY    48  47  96 N13       30.10R
PATTERSON      CLOUDY    52  48  87 N12G17    30.06S
SALT POINT       N/A     55  51  86 N9        30.03S
NEW IBERIA     CLOUDY    50  47  89 N15       30.09R
CHENAULT AIRPK CLOUDY    48  47  97 N7        30.12S

$$

LAZ027-028-201000-
CENTRAL LOUISIANA

CITY           SKY/WX    TMP DP  RH WIND       PRES   REMARKS
FORT POLK      CLOUDY    47  46  97 NE9       30.13F
ALEXANDRIA INT CLOUDY    47  45  93 NE6       30.14F
ALEXANDRIA     CLOUDY    47  45  93 VRB3      30.15F

$$

LAZ001-002-201000-
NORTHWEST LOUISIANA

CITY           SKY/WX    TMP DP  RH WIND       PRES   REMARKS
SHREVEPORT     CLOUDY    46  43  89 E6        30.19R
BARKSDALE AFB  NOT AVBL
DTN SHREVEPORT CLOUDY    45  41  86 NE6       30.20R

$$

LAZ014-016-201000-
NORTHEAST LOUISIANA

CITY           SKY/WX    TMP DP  RH WIND       PRES   REMARKS
MONROE         CLOUDY    44  42  93 NE5       30.20S
TALLULAH       CLOUDY    46  43  89 N10       30.18F

$$




USA.gov is the U.S. government's official web portal to all federal, state and local government web resources and services.